TimeEDT,TemperatureF,Dew PointF,Humidity,Sea Level PressureIn,VisibilityMPH,Wind Direction,Wind SpeedMPH,Gust SpeedMPH,PrecipitationIn,Events,Conditions,WindDirDegrees,DateUTC
12:52 AM,35.1,23.0,61,29.78,10.0,West,10.4,23.0,N/A,,Overcast,280,2014-03-21 04:52:00
1:52 AM,34.0,23.0,64,29.78,10.0,West,8.1,-,N/A,,Overcast,260,2014-03-21 05:52:00
2:52 AM,35.1,19.9,54,29.78,10.0,West,11.5,26.5,N/A,,Overcast,270,2014-03-21 06:52:00
3:52 AM,35.1,19.9,54,29.78,10.0,West,15.0,20.7,N/A,,Overcast,280,2014-03-21 07:52:00
4:52 AM,34.0,19.9,56,29.79,10.0,West,9.2,-,N/A,,Overcast,280,2014-03-21 08:52:00
5:52 AM,34.0,19.9,56,29.81,10.0,West,8.1,-,N/A,,Overcast,280,2014-03-21 09:52:00
6:52 AM,33.1,21.0,61,29.82,10.0,WSW,11.5,-,N/A,,Overcast,250,2014-03-21 10:52:00
7:52 AM,33.1,21.0,61,29.83,10.0,West,18.4,26.5,N/A,,Overcast,280,2014-03-21 11:52:00
8:52 AM,34.0,19.9,56,29.85,10.0,West,15.0,23.0,N/A,,Overcast,260,2014-03-21 12:52:00
9:52 AM,34.0,19.9,56,29.87,10.0,WNW,12.7,23.0,N/A,,Overcast,300,2014-03-21 13:52:00
10:52 AM,34.0,19.9,56,29.88,10.0,WNW,11.5,20.7,N/A,,Overcast,300,2014-03-21 14:52:00
11:52 AM,35.1,18.0,50,29.89,10.0,WNW,13.8,24.2,N/A,,Overcast,290,2014-03-21 15:52:00
12:52 PM,36.0,19.0,50,29.90,10.0,West,10.4,25.3,N/A,,Overcast,280,2014-03-21 16:52:00
1:52 PM,37.9,18.0,45,29.89,10.0,WNW,16.1,32.2,N/A,,Mostly Cloudy,290,2014-03-21 17:52:00
2:52 PM,37.0,19.9,50,29.90,10.0,West,12.7,32.2,N/A,,Overcast,270,2014-03-21 18:52:00
3:52 PM,36.0,19.9,52,29.91,10.0,West,17.3,24.2,N/A,,Overcast,280,2014-03-21 19:52:00
4:52 PM,36.0,19.0,50,29.93,10.0,West,12.7,27.6,N/A,,Overcast,280,2014-03-21 20:52:00
5:52 PM,35.1,19.9,54,29.96,10.0,WNW,10.4,26.5,N/A,,Overcast,300,2014-03-21 21:52:00
6:52 PM,34.0,19.0,54,29.99,10.0,WNW,9.2,-,N/A,,Partly Cloudy,290,2014-03-21 22:52:00
7:52 PM,32.0,19.0,59,30.01,10.0,West,8.1,-,N/A,,Clear,270,2014-03-21 23:52:00
8:52 PM,30.9,19.0,61,30.02,10.0,Variable,4.6,-,N/A,,Clear,0,2014-03-22 00:52:00
9:52 PM,30.0,18.0,61,30.02,10.0,WNW,6.9,-,N/A,,Clear,300,2014-03-22 01:52:00
10:52 PM,30.0,18.0,61,30.04,10.0,West,5.8,-,N/A,,Clear,280,2014-03-22 02:52:00
11:52 PM,28.9,18.0,64,30.04,10.0,NW,3.5,-,N/A,,Clear,310,2014-03-22 03:52:00